W8APS Weather Reports


time (UTC)temp
F
wind
direction
speed
knots
gust
knots
rain 1hr
in
rain 24hr
in
rain mn
in
humidity
%
barometer
mb
20260902135515 84 214 0.0 4.3 0.00 0.00 0.00 77 1015.3
20260902135016 83 188 0.0 4.3 0.00 0.00 0.00 78 1015.3
20260902134536 82 248 0.0 4.3 0.00 0.00 0.00 80 1015.3
20260902134019 82 237 0.9 5.2 0.00 0.00 0.00 81 1015.3
20260902133523 81 231 2.6 5.2 0.00 0.00 0.00 81 1015.5
20260902133038 81 149 0.9 4.3 0.00 0.00 0.00 83 1015.6
20260902132519 81 250 1.7 4.3 0.00 0.00 0.00 83 1015.5
20260902132021 80 242 0.9 8.7 0.00 0.00 0.00 84 1015.6
20260902131538 80 252 2.6 8.7 0.00 0.00 0.00 86 1015.5
20260902131019 80 245 1.7 7.0 0.00 0.00 0.00 85 1015.5
20260902130516 79 263 1.7 7.0 0.00 0.00 0.00 86 1015.5
20260902130039 79 248 1.7 7.0 0.00 0.00 0.00 86 1015.5
20260902125518 79 231 0.0 4.3 0.00 0.00 0.00 87 1015.4
20260902125016 78 258 0.9 6.1 0.00 0.00 0.00 88 1015.4
20260902124541 78 216 1.7 6.1 0.00 0.00 0.00 88 1015.5
20260902124020 78 247 0.9 6.1 0.00 0.00 0.00 89 1015.4
20260902123520 77 0 0.9 5.2 0.00 0.00 0.00 90 1015.5
20260902123035 77 0 0.9 5.2 0.00 0.00 0.00 91 1015.5
20260902122519 76 0 0.0 3.5 0.00 0.00 0.00 91 1015.4
20260902122019 76 0 0.0 4.3 0.00 0.00 0.00 91 1015.4
20260902121536 76 248 0.9 4.3 0.00 0.00 0.00 91 1015.4
20260902121021 76 233 0.9 3.5 0.00 0.00 0.00 91 1015.3
20260902120518 76 0 0.9 4.3 0.00 0.00 0.00 91 1015.5
20260902120045 76 0 1.7 4.3 0.00 0.00 0.00 91 1015.4
20260902115518 76 0 0.9 5.2 0.00 0.00 0.00 91 1015.4
20260902115016 76 0 0.9 5.2 0.00 0.00 0.00 91 1015.5
20260902114538 76 268 2.6 5.2 0.00 0.00 0.00 91 1015.3
20260902114021 76 249 0.9 5.2 0.00 0.00 0.00 91 1015.1
20260902113520 76 0 0.9 4.3 0.00 0.00 0.00 91 1015.1
20260902113044 76 210 2.6 7.0 0.00 0.00 0.00 91 1015.3
20260902112518 76 237 1.7 7.0 0.00 0.00 0.00 90 1015.2
20260902112019 76 274 0.9 7.0 0.00 0.00 0.00 90 1015.1
20260902111542 77 223 1.7 5.2 0.00 0.00 0.00 90 1015.1
20260902111016 77 233 1.7 7.8 0.00 0.00 0.00 90 1015.1
20260902110518 77 226 1.7 8.7 0.00 0.00 0.00 90 1015.0
20260902110033 77 180 2.6 8.7 0.00 0.00 0.00 89 1015.3
20260902105517 77 223 2.6 12.2 0.00 0.00 0.00 90 1015.5
20260902105016 77 251 1.7 12.2 0.00 0.00 0.00 90 1015.7
20260902104540 77 262 3.5 12.2 0.00 0.00 0.00 90 1015.8
20260902104019 76 270 1.7 6.1 0.00 0.00 0.00 91 1016.0
20260902103515 76 312 2.6 6.1 0.00 0.00 0.00 91 1015.8
20260902103035 76 232 1.7 5.2 0.00 0.00 0.00 91 1015.5
20260902102519 76 247 2.6 5.2 0.00 0.00 0.00 91 1015.5
20260902102018 76 252 1.7 5.2 0.00 0.00 0.00 92 1015.4
20260902101537 76 0 1.7 4.3 0.00 0.00 0.00 92 1015.5
20260902101016 76 0 0.9 4.3 0.00 0.00 0.00 92 1015.5
20260902100519 76 242 0.9 2.6 0.00 0.00 0.00 92 1015.2
20260902100035 76 0 0.0 2.6 0.00 0.00 0.00 92 1015.0
20260902095518 76 243 0.0 2.6 0.00 0.00 0.00 92 1015.0
20260902095017 76 231 0.0 2.6 0.00 0.00 0.00 92 1015.1
20260902094533 76 0 0.0 1.7 0.00 0.00 0.00 92 1015.1
20260902094018 76 0 0.0 0.9 0.00 0.00 0.00 92 1015.1
20260902093518 76 0 0.0 0.9 0.00 0.00 0.00 92 1015.2
20260902093037 76 0 0.0 2.6 0.00 0.00 0.00 92 1015.3
20260902092522 76 0 0.0 2.6 0.00 0.00 0.00 91 1015.3
20260902092018 76 238 0.0 1.7 0.00 0.00 0.00 91 1015.3
20260902091541 76 0 0.0 1.7 0.00 0.00 0.00 91 1015.3
20260902091016 76 259 0.0 2.6 0.00 0.00 0.00 91 1015.3
20260902090516 76 0 0.0 2.6 0.00 0.00 0.00 91 1015.3
20260902090033 76 242 0.0 2.6 0.00 0.00 0.00 91 1015.2
20260902085521 76 0 0.0 3.5 0.00 0.00 0.00 91 1015.0
20260902085022 76 0 0.0 3.5 0.00 0.00 0.00 91 1015.0
20260902084535 76 0 0.9 3.5 0.00 0.00 0.00 91 1014.9
20260902084021 76 0 0.9 3.5 0.00 0.00 0.00 91 1014.9
20260902083519 76 221 0.9 4.3 0.00 0.00 0.00 91 1014.9
20260902083034 76 207 0.9 4.3 0.00 0.00 0.00 91 1014.9
20260902082520 76 228 0.9 4.3 0.00 0.00 0.00 92 1015.0
20260902082020 76 219 0.0 4.3 0.00 0.00 0.00 92 1014.9
20260902081534 76 237 0.0 3.5 0.00 0.00 0.00 92 1014.9
20260902081017 76 0 0.0 3.5 0.00 0.00 0.00 92 1014.8
20260902080517 76 226 0.0 3.5 0.00 0.00 0.00 92 1014.9
20260902080111 76 0 0.0 2.6 0.00 0.00 0.00 92 1014.9
20260902075523 75 245 0.9 3.5 0.00 0.00 0.00 92 1015.0
20260902075020 75 223 0.0 3.5 0.00 0.00 0.00 93 1015.0
20260902074535 74 257 0.9 3.5 0.00 0.00 0.00 94 1015.1
20260902074017 74 0 0.0 0.9 0.00 0.00 0.00 93 1014.9
20260902073518 74 0 0.0 0.0 0.00 0.00 0.00 92 1014.9
20260902073037 74 0 0.0 0.0 0.00 0.00 0.00 92 1014.9
20260902072518 74 0 0.0 0.9 0.00 0.00 0.00 92 1014.7
20260902072021 74 180 0.0 0.9 0.00 0.00 0.00 92 1014.6
20260902071540 74 0 0.0 0.9 0.00 0.00 0.00 92 1014.7
20260902071018 74 0 0.0 0.9 0.00 0.00 0.00 92 1014.8
20260902070518 74 0 0.0 0.9 0.00 0.00 0.00 92 1014.8
20260902070038 74 0 0.0 0.9 0.00 0.00 0.00 92 1014.8
20260902065518 74 0 0.0 0.9 0.00 0.00 0.00 92 1014.7
20260902065021 74 217 0.0 0.9 0.00 0.00 0.00 92 1014.7
20260902064542 74 0 0.0 0.9 0.00 0.00 0.00 91 1014.7
20260902064019 74 0 0.0 0.0 0.00 0.00 0.00 91 1014.8
20260902063522 74 0 0.0 0.0 0.00 0.00 0.00 91 1014.9
20260902063043 74 0 0.0 0.0 0.00 0.00 0.00 91 1015.0
20260902062521 75 0 0.0 0.0 0.00 0.00 0.00 91 1015.1
20260902062018 75 0 0.0 0.0 0.00 0.00 0.00 91 1015.2
20260902061551 75 0 0.0 0.9 0.00 0.00 0.00 90 1015.3
20260902061016 75 0 0.0 0.9 0.00 0.00 0.00 90 1015.2
20260902060518 75 0 0.0 0.9 0.00 0.00 0.00 90 1015.2
20260902060036 75 0 0.0 0.0 0.00 0.00 0.00 90 1015.3
20260902055517 75 0 0.0 0.0 0.00 0.00 0.00 90 1015.4
20260902055017 75 0 0.0 0.9 0.00 0.00 0.00 90 1015.5
20260902054540 75 0 0.0 0.9 0.00 0.00 0.00 90 1015.4
20260902054020 75 0 0.0 0.9 0.00 0.00 0.00 90 1015.4
20260902053519 75 0 0.0 0.0 0.00 0.00 0.00 90 1015.5
20260902053038 75 0 0.0 0.0 0.00 0.00 0.00 90 1015.5
20260902052522 75 0 0.0 0.9 0.00 0.00 0.00 90 1015.5
20260902052018 75 0 0.0 1.7 0.00 0.00 0.00 90 1015.5
20260902051541 75 0 0.0 1.7 0.00 0.00 0.00 90 1015.5
20260902051019 75 0 0.0 2.6 0.00 0.00 0.00 90 1015.6
20260902050517 75 0 0.0 2.6 0.00 0.00 0.00 90 1015.8
20260902050039 75 0 0.0 2.6 0.00 0.00 0.00 90 1015.8
20260902045541 75 184 0.0 0.0 0.00 0.00 0.00 90 1015.7
20260902045020 75 176 0.0 0.9 0.00 0.00 0.00 90 1015.7
20260902044537 75 0 0.0 1.7 0.00 0.00 0.00 90 1015.8
20260902044018 75 0 0.0 1.7 0.00 0.00 0.00 90 1015.7
20260902043516 75 0 0.0 1.7 0.00 0.00 0.00 90 1015.7
20260902043035 75 0 0.0 0.9 0.00 0.00 0.00 90 1015.7
20260902042521 75 0 0.0 0.0 0.00 0.00 0.00 90 1015.6
20260902042017 75 0 0.0 0.0 0.00 0.00 0.00 90 1015.5
20260902041535 75 0 0.0 0.0 0.00 0.00 0.00 90 1015.5
20260902041018 75 0 0.0 0.0 0.00 0.00 0.00 90 1015.3
20260902040518 76 0 0.0 0.0 0.00 0.00 0.00 90 1015.3
20260902040033 76 0 0.0 0.0 0.00 0.00 0.00 90 1015.4
20260902035516 76 0 0.0 0.0 0.00 0.00 0.00 90 1015.4
20260902035016 76 0 0.0 0.0 0.00 0.00 0.00 90 1015.4
20260902034545 76 0 0.0 0.0 0.00 0.00 0.00 90 1015.5
20260902034025 76 0 0.0 0.0 0.00 0.00 0.00 89 1015.5
20260902033517 76 0 0.0 0.0 0.00 0.00 0.00 89 1015.5
20260902033052 76 0 0.0 0.9 0.00 0.00 0.00 89 1015.5
20260902032518 76 0 0.0 0.9 0.00 0.00 0.00 89 1015.5
20260902032019 76 0 0.0 0.9 0.00 0.00 0.00 89 1015.4
20260902031534 77 0 0.0 0.0 0.00 0.00 0.00 89 1015.4
20260902031020 77 0 0.0 0.0 0.00 0.00 0.00 89 1015.3
20260902030518 77 0 0.0 0.9 0.00 0.00 0.00 89 1015.2
20260902030035 77 0 0.0 0.9 0.00 0.00 0.00 88 1015.2
20260902025524 77 0 0.0 0.0 0.00 0.00 0.00 88 1015.0
20260902025017 78 0 0.0 0.0 0.00 0.00 0.00 87 1015.0
20260902024543 78 0 0.0 0.0 0.00 0.00 0.00 87 1015.1
20260902024017 78 0 0.0 2.6 0.00 0.00 0.00 87 1015.0
20260902023516 78 0 0.0 2.6 0.00 0.00 0.00 87 1015.1
20260902023032 78 0 0.0 2.6 0.00 0.00 0.00 87 1015.0
20260902022518 78 0 0.0 0.0 0.00 0.00 0.00 86 1015.1
20260902022016 79 0 0.0 0.0 0.00 0.00 0.00 86 1015.0
20260902021533 79 0 0.0 0.0 0.00 0.00 0.00 85 1014.9
20260902021019 79 0 0.0 0.9 0.00 0.00 0.00 85 1015.0
20260902020517 79 0 0.0 1.7 0.00 0.00 0.00 84 1015.0
20260902020039 80 0 0.0 1.7 0.00 0.00 0.00 84 1015.1
20260902015517 80 0 0.0 2.6 0.00 0.00 0.00 84 1015.1
20260902015018 80 0 0.0 3.5 0.00 0.00 0.00 83 1015.1
20260902014535 80 248 0.9 4.3 0.00 0.00 0.00 83 1015.2
20260902014017 80 215 0.9 5.2 0.00 0.00 0.00 83 1015.3
20260902013516 81 220 1.7 5.2 0.00 0.00 0.00 83 1015.3
20260902013038 81 217 1.7 5.2 0.00 0.00 0.00 82 1015.3
20260902012515 81 233 1.7 5.2 0.00 0.00 0.00 82 1015.1
20260902012022 81 0 0.9 5.2 0.00 0.00 0.00 82 1015.3
20260902011535 81 237 1.7 6.1 0.00 0.00 0.00 82 1015.3
20260902011017 82 0 2.6 6.1 0.00 0.00 0.00 81 1015.2
20260902010521 82 225 0.9 7.8 0.00 0.00 0.00 81 1015.1
20260902010036 82 280 2.6 7.8 0.00 0.00 0.00 81 1015.1
20260902005517 82 221 2.6 7.8 0.00 0.00 0.00 81 1015.0
20260902005017 82 173 1.7 4.3 0.00 0.00 0.00 81 1014.8
20260902004539 82 0 0.9 7.0 0.00 0.00 0.00 81 1014.8
20260902004018 82 0 1.7 7.0 0.00 0.00 0.00 80 1014.8
20260902003517 82 248 3.5 6.1 0.00 0.00 0.00 81 1014.7
20260902003039 82 187 0.0 1.7 0.00 0.00 0.00 82 1014.8
20260902002516 82 0 0.0 0.9 0.00 0.00 0.00 81 1014.9
20260902002016 83 0 0.0 0.0 0.00 0.00 0.00 80 1014.6
20260902001538 83 0 0.0 0.0 0.00 0.00 0.00 79 1014.6
20260902001019 83 0 0.0 0.0 0.00 0.00 0.00 78 1014.6
20260902000520 83 0 0.0 0.0 0.00 0.00 0.00 77 1014.6
20260902000039 84 0 0.0 0.0 0.00 0.00 0.00 76 1014.7
20260901235521 84 0 0.0 0.9 0.00 0.00 0.00 75 1014.7
20260901235017 85 0 0.0 0.9 0.00 0.00 0.00 74 1014.7
20260901234533 85 0 0.0 0.9 0.00 0.00 0.00 73 1014.7
20260901234018 85 0 0.0 2.6 0.00 0.00 0.00 74 1014.7
20260901233518 86 0 0.0 2.6 0.00 0.00 0.00 73 1014.8
20260901233044 86 250 0.0 2.6 0.00 0.00 0.00 73 1014.7
20260901232518 86 0 0.0 2.6 0.00 0.00 0.00 72 1014.9
20260901232016 86 234 0.0 4.3 0.00 0.00 0.00 71 1014.9
20260901231538 86 252 0.0 4.3 0.00 0.00 0.00 71 1014.9
20260901231016 87 255 0.9 4.3 0.00 0.00 0.00 70 1015.0
20260901230517 87 223 0.0 3.5 0.00 0.00 0.00 69 1014.9
20260901230038 87 0 0.0 6.1 0.00 0.00 0.00 68 1014.9
20260901225520 88 0 0.0 6.1 0.00 0.06 0.00 68 1014.7
20260901225024 88 239 0.9 6.1 0.00 0.06 0.00 67 1014.7
20260901224543 88 250 0.9 4.3 0.00 0.06 0.00 66 1014.7
20260901224019 89 0 0.9 5.2 0.00 0.06 0.00 66 1014.7
20260901223517 89 268 0.9 5.2 0.00 0.06 0.00 65 1014.7
20260901223035 89 252 0.9 4.3 0.00 0.06 0.00 65 1014.7
20260901222517 89 253 0.0 6.1 0.00 0.06 0.00 66 1014.7
20260901222017 89 194 0.0 6.1 0.00 0.06 0.00 66 1014.7
20260901221534 89 0 1.7 6.1 0.00 0.06 0.00 65 1014.6
20260901221016 89 207 2.6 6.1 0.00 0.06 0.00 65 1014.6
20260901220515 89 202 0.9 4.3 0.00 0.06 0.00 65 1014.6
20260901220035 89 190 0.9 7.8 0.00 0.06 0.00 65 1014.5
20260901215518 89 216 2.6 7.8 0.00 0.06 0.00 65 1014.6
20260901215016 89 240 2.6 8.7 0.00 0.06 0.00 64 1014.5
20260901214541 89 276 2.6 8.7 0.00 0.06 0.00 64 1014.4
20260901214020 89 0 0.9 8.7 0.00 0.06 0.00 64 1014.5
20260901213517 89 252 1.7 8.7 0.00 0.06 0.00 64 1014.4
20260901213036 89 231 4.3 8.7 0.00 0.06 0.00 64 1014.5
20260901212517 89 246 0.9 6.1 0.00 0.06 0.00 65 1014.6
20260901212018 88 0 0.0 6.1 0.00 0.06 0.00 65 1014.7
20260901211535 88 214 1.7 9.6 0.00 0.06 0.00 65 1014.7
20260901211017 88 260 3.5 9.6 0.00 0.06 0.00 65 1014.7
20260901210518 88 235 0.9 8.7 0.00 0.06 0.00 64 1014.7
20260901210033 88 238 1.7 8.7 0.00 0.06 0.00 64 1014.7
20260901205516 89 230 3.5 7.8 0.00 0.06 0.00 63 1014.7
20260901205018 89 224 1.7 9.6 0.00 0.06 0.00 65 1014.6
20260901204533 89 238 2.6 9.6 0.00 0.06 0.00 65 1014.7
20260901204020 89 236 2.6 9.6 0.00 0.06 0.00 64 1014.6
20260901203519 89 248 5.2 9.6 0.00 0.06 0.00 61 1014.7
20260901203041 90 274 2.6 9.6 0.00 0.06 0.00 63 1014.7
20260901202519 89 205 3.5 9.6 0.00 0.06 0.00 63 1014.7
20260901202019 89 260 5.2 8.7 0.00 0.06 0.00 63 1014.8
20260901201533 88 0 0.9 6.1 0.00 0.06 0.00 66 1014.8
20260901201019 88 281 2.6 10.4 0.00 0.06 0.00 64 1014.8
20260901200516 88 0 2.6 10.4 0.00 0.06 0.00 65 1014.7
20260901200047 89 264 1.7 10.4 0.00 0.06 0.00 65 1014.8
20260901195518 88 255 1.7 10.4 0.00 0.06 0.00 66 1014.7
20260901195022 88 250 3.5 10.4 0.00 0.06 0.00 64 1014.8
20260901194539 88 248 2.6 9.6 0.00 0.06 0.00 67 1014.9
20260901194017 88 228 3.5 9.6 0.00 0.06 0.00 66 1014.9
20260901193517 88 267 2.6 11.3 0.00 0.06 0.00 66 1015.0
20260901193034 89 248 5.2 11.3 0.00 0.06 0.00 65 1015.0
20260901192519 89 287 0.0 7.0 0.00 0.06 0.00 66 1015.2
20260901192018 89 0 2.6 6.1 0.00 0.06 0.00 66 1015.1
20260901191542 89 212 0.9 8.7 0.00 0.06 0.00 67 1015.1
20260901191022 88 0 0.0 8.7 0.00 0.06 0.00 67 1015.1
20260901190518 88 264 2.6 8.7 0.00 0.06 0.00 66 1015.1
20260901190046 89 0 2.6 8.7 0.00 0.06 0.00 66 1015.0
20260901185521 89 229 1.7 7.0 0.00 0.08 0.00 64 1015.0
20260901185018 88 265 1.7 7.0 0.00 0.08 0.00 65 1015.0
20260901184540 89 285 3.5 7.0 0.00 0.08 0.00 65 1014.9
20260901184018 89 336 1.7 4.3 0.00 0.08 0.00 64 1014.8
20260901183515 89 274 0.9 6.1 0.00 0.08 0.00 64 1014.9
20260901183035 88 0 0.9 6.1 0.00 0.08 0.00 67 1014.9
20260901182517 88 250 1.7 7.0 0.00 0.08 0.00 68 1014.9
20260901182016 88 0 1.7 7.0 0.00 0.08 0.00 67 1014.9
20260901181534 88 228 2.6 7.0 0.00 0.08 0.00 66 1015.0
20260901181016 88 328 0.0 6.1 0.00 0.08 0.00 69 1014.9
20260901180516 88 245 1.7 7.0 0.00 0.08 0.00 69 1015.0
20260901180035 88 263 1.7 7.0 0.00 0.08 0.00 67 1014.9
20260901175525 89 281 1.7 7.0 0.00 0.08 0.00 65 1015.0
20260901175020 89 234 0.9 6.1 0.00 0.08 0.00 67 1015.0
20260901174541 88 207 1.7 7.0 0.00 0.08 0.00 67 1015.0
20260901174026 89 301 0.9 7.0 0.00 0.08 0.00 66 1015.1
20260901173518 89 234 1.7 6.1 0.00 0.08 0.00 66 1015.0
20260901173036 88 270 0.9 6.1 0.00 0.08 0.00 68 1015.1
20260901172518 88 181 1.7 5.2 0.00 0.08 0.00 66 1015.1
20260901172019 88 153 0.9 7.8 0.00 0.08 0.00 69 1015.2
20260901171540 87 240 3.5 8.7 0.00 0.08 0.00 68 1015.1
20260901171017 87 158 2.6 8.7 0.00 0.08 0.00 67 1015.1
20260901170520 87 210 4.3 8.7 0.00 0.08 0.00 66 1015.1
20260901170033 88 193 1.7 7.0 0.00 0.08 0.00 67 1015.1
20260901165523 87 238 2.6 7.0 0.00 0.14 0.00 66 1015.2
20260901165020 88 210 0.9 5.2 0.00 0.14 0.00 67 1015.3
20260901164537 87 221 0.9 3.5 0.00 0.14 0.00 69 1015.4
20260901164017 86 257 0.9 6.1 0.00 0.14 0.00 70 1015.6
20260901163519 86 248 1.7 6.1 0.00 0.14 0.00 70 1015.6
20260901163038 87 200 0.9 6.1 0.00 0.14 0.00 69 1015.7
20260901162517 86 0 0.0 4.3 0.00 0.14 0.00 71 1015.7
20260901162017 86 0 1.7 4.3 0.00 0.14 0.00 72 1015.9
20260901161543 86 0 0.9 4.3 0.00 0.14 0.00 71 1015.9
20260901161021 86 274 0.0 5.2 0.00 0.14 0.00 71 1015.9
20260901160521 86 230 0.9 5.2 0.00 0.14 0.00 70 1015.9
20260901160038 86 228 0.9 5.2 0.00 0.14 0.00 71 1015.9
20260901155519 85 0 1.7 6.1 0.00 0.14 0.00 72 1015.9
20260901155019 85 0 0.0 6.1 0.00 0.14 0.00 72 1015.9
20260901154534 85 204 0.0 4.3 0.00 0.14 0.00 73 1015.8
20260901154019 85 238 0.9 4.3 0.00 0.14 0.00 73 1015.8
20260901153521 85 225 0.9 4.3 0.00 0.14 0.00 73 1015.8
20260901153039 85 166 0.0 4.3 0.00 0.14 0.00 73 1016.0
20260901152517 84 236 0.9 4.3 0.00 0.14 0.00 75 1015.9
20260901152021 83 0 0.0 4.3 0.00 0.14 0.00 76 1015.9
20260901151542 83 0 1.7 4.3 0.00 0.14 0.00 74 1015.9
20260901151020 84 224 0.9 4.3 0.00 0.14 0.00 75 1015.9
20260901150520 83 232 0.9 3.5 0.00 0.14 0.00 76 1015.8
20260901150041 83 0 0.0 5.2 0.00 0.14 0.00 77 1015.8
20260901145519 82 200 0.9 5.2 0.00 0.14 0.00 78 1015.9
20260901145018 81 228 1.7 5.2 0.00 0.14 0.00 78 1015.9
20260901144540 82 0 0.0 4.3 0.00 0.14 0.00 78 1015.9
20260901144020 81 0 0.9 4.3 0.00 0.14 0.00 78 1016.0
20260901143521 82 231 0.9 4.3 0.00 0.14 0.00 78 1016.1
20260901143039 81 243 0.0 6.1 0.00 0.14 0.00 79 1016.0
20260901142519 81 228 0.9 6.1 0.00 0.14 0.00 79 1016.0
20260901142018 81 242 1.7 6.1 0.00 0.14 0.00 78 1015.9
20260901141535 82 0 0.0 2.6 0.00 0.14 0.00 79 1015.9
20260901141017 81 0 0.0 3.5 0.00 0.14 0.00 80 1015.7
20260901140519 80 232 0.9 3.5 0.00 0.14 0.00 80 1015.8
20260901140040 80 0 0.0 2.6 0.00 0.14 0.00 80 1015.8